This is the latest recevied weather packets stored in our database for station/object ALAKES. If no packets are shown the sender has not sent any weather packets the latest 10 day(s).
| Time | Temp. | Humidity | Pressure | Rain* | Wind** | Luminosity | Snow |
|---|---|---|---|---|---|---|---|
| 1787428574 | 18.89° C | 37% | - | 0 mm | - | - | - |
| 1787428243 | 18.89° C | 37% | - | 0 mm | - | - | - |
| 1787428149 | 18.89° C | 37% | - | 0 mm | - | - | - |
| 1787427588 | 17.78° C | 39% | - | 0 mm | - | - | - |
| 1787427517 | 17.78° C | 39% | - | 0 mm | - | - | - |
| 1787426892 | 16.67° C | 41% | - | 0 mm | - | - | - |
| 1787426260 | 16.67° C | 43% | - | 0 mm | - | - | - |
| 1787425640 | 16.67° C | 41% | - | 0 mm | - | - | - |
| 1787425012 | 16.67° C | 43% | - | 0 mm | - | - | - |
| 1787424384 | 16.11° C | 44% | - | 0 mm | - | - | - |
| 1787423761 | 16.67° C | 42% | - | 0 mm | - | - | - |
| 1787423137 | 16.11° C | 43% | - | 0 mm | - | - | - |
| 1787422507 | 16.11° C | 43% | - | 0 mm | - | - | - |
| 1787421883 | 16.11° C | 44% | - | 0 mm | - | - | - |
| 1787421257 | 16.11° C | 45% | - | 0 mm | - | - | - |
| 1787420632 | 15.56° C | 42% | - | 0 mm | - | - | - |
| 1787420016 | 16.11° C | 42% | - | 0 mm | - | - | - |
| 1787419388 | 16.11° C | 42% | - | 0 mm | - | - | - |
| 1787418754 | 16.11° C | 42% | - | 0 mm | - | - | - |
| 1787418135 | 16.11° C | 43% | - | 0 mm | - | - | - |
| 1787417507 | 16.11° C | 48% | - | 0 mm | - | - | - |
| 1787416885 | 16.67° C | 43% | - | 0 mm | - | - | - |
| 1787416303 | 16.11° C | 42% | - | 0 mm | - | - | - |
| 1787416259 | 16.11° C | 42% | - | 0 mm | - | - | - |
| 1787415638 | 16.11° C | 46% | - | 0 mm | - | - | - |
* Rain latest 24 hours (hover to see other rain measurements)
** Current wind speed in m/s (hover to see current wind gust speed)